User: anonymous   Login
Location: Caltech
(34.1382°N, 118.1253°W)
Time: 22:13:51
(UTC-07:00)
Language:

Iridium 95 - Orbit

View from above orbital plane
View from above orbital plane
View from above satellite
View from above satellite

Ground track
Ground track

The orbit data is extracted from the following two-line orbital elements,

1 27375U 02005D   16120.46782936  .00000007  00000-0 -44737-5 0  9994
2 27375  86.3949 100.5437 0002196  80.8051 279.3393 14.34214534751612
Epoch (UTC): 29 April 2016 11:13:40
Eccentricity: 0.0002196
inclination: 86.3949°
perigee height: 776 km
apogee height: 779 km
right ascension of ascending node: 100.5437°
argument of perigee: 80.8051°
revolutions per day: 14.34214534
mean anomaly at epoch: 279.3393°
orbit number at epoch: 75161

The dashed part of the orbit path shows where the satellite is in the earth's shadow,  

DLR